Tracking 19170 objects as of 22-May-2018
HD Live streaming from Space Station
objects crossing your sky now

NOAA 16 DEB

Track NOAA 16 DEB now!
10-day predictions


NORAD ID: 41411
Int'l Code: 2000-055KQ
Perigee: 828.6 km
Apogee: 857.3 km
Inclination: 98.9 °
Period: 101.6 minutes
Semi major axis: 7213 km
RCS: Unknown
Launch date: September 21, 2000
Source: United States (US)
Launch site: AIR FORCE WESTERN TEST RANGE (AFWTR)

Note: This is SATELLITE DEBRIS
aabbcc
Your satellite tracking list
Your tracking list is empty




NASA's NSSDC Master Catalog

Two Line Element Set (TLE):
1 41411U 00055KQ  18141.99845282  .00000556  00000-0  29876-3 0  9994
2 41411  98.8623 222.2966 0019868  44.1931 316.0826 14.16912712117494
Source of the keplerian elements: AFSPC